Key statistics
Satellite CZ-6A DEB at a glance.
Uptime
914
Days in orbit
Revolutions
≈ 16.2
Per day
Orbit
SSO
Sun Synchronous Orbit
Inclination
98.5
Latest
Satellite identification and parameters
Extended collection of information and parameters for CZ-6A DEB.
Object identification
Identified? True
Debris? True
Object name: CZ-6A DEB
International designator: 2022-151GR
Object number (NORAD): 54465
Object ID (CCSDS): 54465
Country: PEOPLES REPUBLIC OF CHINA (PRC)
Current information (Y/N): Y
RCS size: SMALL
Orbital parameters
Decay date: May 13, 2025
Period: 88.967 minutes
Inclination: 98.4882 deg
SMA: 6601.536 km
Apoapsis: 239.19 km
Periapsis: 207.613 km
RAAN: 203.7993 deg
Eccentricy: 0.0023916
Argument of periapsis: 277.9487 deg
Mean anomaly: 81.9083 deg
Mean motion: 16.18583971 rev/day
Mean motion (dot): 0.15196819 rev/day2
B* drag term: 0.0084979 1/REarth
Two-line elements (TLE)
Creation date: May 9, 2025, 2:46 a.m.
Reference frame: TEME
Reference center: EARTH
Epoch: May 8, 2025, 3:45 a.m. UTC
TLE line 0: 0 CZ-6A DEB
TLE line 1: 1 54465U 22151GR 25128.15631424 .15196819 31185-5 84979-2 0 9991
TLE line 2: 2 54465 98.4882 203.7993 0023916 277.9487 81.9083 16.18583971133604
Live tracking on map
Satellite CZ-6A DEB has decayed and is no longer in orbit. No tracking available.
In-orbit conjunctions
Satellite CZ-6A DEB has decayed and is no longer in orbit. No conjunctions available.
Associated space launch
Chinese satellite reported for atmospheric/ocean/environmental/spatial parameter research purposes, details TBD.
CZ-6A DEB was lifted into orbit during the mission ‘Long March 6A | Yunhai 3’, on board a Long March 6A space rocket.
The launch took place on Nov. 11, 2022, 10:52 p.m. from Launch Complex 9A.
For more information about the launch, click the button.
Long March 6A | Yunhai 3
Agency: N/A
Status: Launch Successful
Launch date: Nov. 11, 2022, 10:52 p.m. UTC
Rocket: Long March 6A
Launch pad: Launch Complex 9A
Location: Taiyuan Satellite Launch Center, People's Republic of China
...
Latest news about this satellite
There are no fresh news available about this satellite. Check back as we update our databases every day.
Newsletter sign-up
Weekly statistics, charts and insights to help you stay on top of the space industry.
